This demonstration page uses our WeatherBlox Daily Observations layout. Learn more.

Left ArrowRight Arrow

39.51506, -84.39828

Hourly Observations for October 12, 2015

Temp ( °F °C ) Dew Point ( °F °C ) Humidity (%) Winds ( mph kmh ) Pressure ( in mb ) Visibility ( mi km ) Precip ( " mm )
12:15 am 00:15 Clear 49 9.6 46 7.6 87 87 N N/A 29.88 1012 10 16 N/A
12:35 am 00:35 Clear 49 9.6 46 7.7 88 88 N N/A 29.88 1012 10 16 N/A
12:55 am 00:55 Clear 49 9.6 46 7.8 89 89 N N/A 29.88 1012 10 16 N/A
1:15 am 01:15 Clear 49 9.6 46 7.9 89 89 N N/A 29.85 1011 10 16 N/A
1:35 am 01:35 Mostly Cloudy with Fog 49 9.6 46 8 90 90 N N/A 29.88 1012 1 1 N/A
1:55 am 01:55 Clear 49 9.6 46 8 90 90 N N/A 29.85 1011 10 16 N/A
2:15 am 02:15 Clear 49 9.6 46 8 90 90 N N/A 29.85 1011 10 16 N/A
2:35 am 02:35 Clear 49 9.6 46 8 90 90 N N/A 29.85 1011 7 11 N/A
2:55 am 02:55 Mostly Cloudy with Mist and Fog 46 7.6 43 6.1 90 90 N N/A 29.85 1011 1 1 N/A
3:15 am 03:15 Mostly Cloudy with Fog 49 9.3 46 7.6 89 89 N N/A 29.85 1011 1 1 N/A
3:35 am 03:35 Mostly Cloudy with Mist and Fog 49 9.6 46 8 90 90 N N/A 29.85 1011 1 2 N/A
3:55 am 03:55 Mostly Cloudy with Fog 47 8.2 44 6.6 90 90 N N/A 29.85 1011 0 0 N/A
4:15 am 04:15 Mostly Cloudy with Mist and Fog 49 9.6 46 8 90 90 N N/A 29.85 1011 1 1 N/A
4:35 am 04:35 Mostly Cloudy with Fog 48 8.9 45 7.4 90 90 N N/A 29.85 1011 1 1 N/A
4:55 am 04:55 Clear with Mist and Fog 49 9.2 46 7.6 90 90 N N/A 29.85 1011 3 5 N/A
5:15 am 05:15 Mostly Cloudy with Mist and Fog 48 8.8 45 7.2 90 90 N N/A 29.85 1011 1 1 N/A
5:35 am 05:35 Clear with Mist and Fog 47 8.5 44 6.8 89 89 N N/A 29.85 1011 5 8 N/A
5:55 am 05:55 Mostly Cloudy with Fog 47 8.2 44 6.6 90 90 N N/A 29.83 1010 0 0 N/A
6:15 am 06:15 Clear with Mist and Fog 48 9 46 7.5 90 90 N N/A 29.83 1010 3 5 N/A
6:35 am 06:35 Clear with Mist and Fog 44 6.4 41 4.9 90 90 N N/A 29.85 1011 3 4 N/A
6:55 am 06:55 Clear with Mist and Fog 45 7.2 42 5.8 91 91 N N/A 29.83 1010 3 5 N/A
7:15 am 07:15 Clear 47 8.5 45 7 90 90 N N/A 29.83 1010 7 11 N/A
7:35 am 07:35 Clear with Mist and Fog 48 8.8 45 7.4 91 91 N N/A 29.83 1010 3 4 N/A
7:55 am 07:55 Sunny with Mist and Fog 48 9 46 7.5 90 90 W 3 6 29.83 1010 5 8 N/A
8:15 am 08:15 Partly Cloudy 49 9.6 47 8.2 91 91 WNW 3 6 29.83 1010 10 16 N/A
8:35 am 08:35 Mostly Cloudy 52 11 49 9.6 91 91 N N/A 29.83 1010 10 16 N/A
8:55 am 08:55 Mostly Cloudy 55 12.5 51 10.6 88 88 SSW 5 7 29.83 1010 10 16 N/A
9:15 am 09:15 Partly Cloudy 57 13.8 50 9.8 77 77 S 7 11 29.77 1008 10 16 N/A
9:35 am 09:35 Partly Cloudy 60 15.3 49 9.4 68 68 SSW 12 19 29.77 1008 10 16 N/A
9:55 am 09:55 Sunny 62 16.4 48 9 62 62 S 9 15 29.77 1008 10 16 N/A
10:15 am 10:15 Sunny 63 17.1 48 8.7 58 58 SSW 10 17 29.77 1008 10 16 N/A
10:35 am 10:35 Sunny 65 18.6 49 9.4 55 55 SSW 8 13 29.77 1008 10 16 N/A
10:55 am 10:55 Sunny 68 19.8 50 9.8 53 53 SSW 12 19 29.74 1007 10 16 N/A
11:15 am 11:15 Sunny 69 20.8 49 9.7 49 49 S 8 13 29.74 1007 10 16 N/A
11:35 am 11:35 Sunny 70 21.3 49 9.4 47 47 SSW 13 20 29.74 1007 10 16 N/A
11:55 am 11:55 Sunny 74 23.6 51 10.3 43 43 S 13 20 29.71 1006 10 16 N/A
12:15 pm 12:15 Sunny 74 23.6 49 9.3 40 40 SSW 16 26 29.71 1006 10 16 N/A
12:35 pm 12:35 Sunny 74 23.6 48 9.1 40 40 SW 17 28 29.71 1006 10 16 N/A
12:55 pm 12:55 Sunny 77 25 50 10.1 39 39 SW 18 30 29.65 1004 10 16 N/A
1:15 pm 13:15 Sunny 77 25.1 49 9.5 37 37 SSW 15 24 29.65 1004 10 16 N/A
1:35 pm 13:35 Sunny 77 25.1 49 9.4 37 37 SW 16 26 29.65 1004 10 16 N/A
1:55 pm 13:55 Sunny 78 25.6 50 9.8 37 37 SW 16 26 29.62 1003 10 16 N/A
2:15 pm 14:15 Sunny 80 26.5 50 10.2 36 36 SSW 17 28 29.62 1003 10 16 N/A
2:35 pm 14:35 Sunny 80 26.5 50 10.1 36 36 SSW 18 30 29.59 1002 10 16 N/A
2:55 pm 14:55 Sunny 80 26.5 50 9.8 35 35 SW 18 30 29.59 1002 10 16 N/A
3:15 pm 15:15 Partly Cloudy 80 26.7 50 9.9 35 35 SSW 17 28 29.59 1002 10 16 N/A
3:35 pm 15:35 Mostly Cloudy 80 26.6 50 10.1 36 36 SSW 13 20 29.59 1002 10 16 N/A
3:55 pm 15:55 Partly Cloudy 80 26.6 50 10.2 36 36 SSW 17 28 29.59 1002 10 16 N/A
4:15 pm 16:15 Partly Cloudy 80 26.5 53 11.4 39 39 SSW 14 22 29.56 1001 10 16 N/A
4:35 pm 16:35 Partly Cloudy 80 26.5 51 10.4 36 36 SSW 16 26 29.56 1001 10 16 N/A
4:55 pm 16:55 Sunny 80 26.5 51 10.7 37 37 SW 17 28 29.56 1001 10 16 N/A
5:15 pm 17:15 Partly Cloudy 80 26.5 51 10.8 37 37 SSW 21 33 29.56 1001 10 16 N/A
5:35 pm 17:35 Partly Cloudy 78 25.6 52 11 40 40 SSW 15 24 29.56 1001 10 16 N/A
5:55 pm 17:55 Mostly Cloudy 77 25.1 52 11.2 42 42 SW 12 19 29.56 1001 10 16 N/A
6:15 pm 18:15 Cloudy 77 25.1 53 11.7 43 43 SW 13 20 29.56 1001 10 16 N/A
6:35 pm 18:35 Cloudy with Light Rain 77 25 55 12.6 46 46 SW 10 17 29.56 1001 10 16 N/A
6:55 pm 18:55 Cloudy 74 23.6 54 12.2 49 49 W 8 13 29.62 1003 10 16 N/A
7:15 pm 19:15 Cloudy with Rain 74 23.4 60 15.8 62 62 WSW 14 22 29.65 1004 10 16 N/A
7:35 pm 19:35 Cloudy with Rain 69 20.8 64 17.6 82 82 N N/A 29.62 1003 10 16 N/A
7:55 pm 19:55 Cloudy with Light Rain 69 20.8 65 18.2 85 85 S 9 15 29.62 1003 7 11 N/A
8:15 pm 20:15 Mostly Cloudy 69 20.8 65 18.2 85 85 S 9 15 29.62 1003 10 16 N/A
8:35 pm 20:35 Mostly Cloudy 69 20.7 64 18 85 85 SW 10 17 29.62 1003 10 16 N/A
8:55 pm 20:55 Mostly Cloudy 67 19.5 62 16.6 83 83 S 8 13 29.62 1003 10 16 N/A
9:15 pm 21:15 Mostly Cloudy 65 18.6 60 15.7 83 83 WSW 6 9 29.62 1003 10 16 N/A
9:35 pm 21:35 Partly Cloudy 64 18 60 15.5 85 85 N N/A 29.65 1004 10 16 N/A
9:55 pm 21:55 Partly Cloudy 63 17.1 58 14.7 86 86 N N/A 29.65 1004 10 16 N/A
10:15 pm 22:15 Partly Cloudy 63 17.3 59 15 86 86 SW 6 9 29.65 1004 10 16 N/A
10:35 pm 22:35 Partly Cloudy 64 18 60 15.5 85 85 N N/A 29.62 1003 10 16 N/A
10:55 pm 22:55 Clear 63 17 58 14.6 86 86 N N/A 29.62 1003 10 16 N/A
11:15 pm 23:15 Partly Cloudy 62 16.6 58 14.5 88 88 N N/A 29.62 1003 7 11 N/A
11:35 pm 23:35 Cloudy 63 17 59 15 88 88 N N/A 29.62 1003 7 11 N/A
11:55 pm 23:55 Mostly Cloudy with Mist and Fog 63 17.1 59 15.1 88 88 SW 7 11 29.62 1003 5 8 N/A

Powered by AerisWeather